Regional Weather Roundup
Issued by NWS

Home | Current Version | Previous Version | Graphics & Text | Print | Product List | Glossary On
Versions: 1 2 3 4 5 6 7 8 9 10 11 12 13 14 15 16 17 18 19 20 21 22 23 24 25 26 27 28 29 30 31 32 33 34 35 36 37 38 39 40 41 42 43 44 45 46 47 48 49 50
000
ASUS44 KMEG 200610
RWRTN
TENNESSEE HOURLY STATE WEATHER ROUNDUP
NATIONAL WEATHER SERVICE MEMPHIS TN
100 AM CDT FRI APR 20 2018

TNZ002-004-019-021-049-052-054-088>092-200700-
WEST TENNESSEE

CITY           SKY/WX    TMP DP  RH WIND       PRES   REMARKS
MEMPHIS INTL   FAIR      46  34  62 NE9       30.36R
NWS MEMPHIS      N/A     43 N/A N/A MISG        N/A
JACKSON        FAIR      41  34  76 NE5       30.37R
DYERSBURG      FAIR      39  35  86 CALM      30.39R
SOMERVILLE     CLEAR     43  34  70 N3        30.34S
COVINGTON      CLEAR     39  36  87 N5        30.37F
UNION CITY     CLEAR     39  36  87 CALM      30.38R
BOLIVAR        PTCLDY    39  34  81 CALM      30.35S
PARIS          CLEAR     36  32  87 N3        30.36S
HUNTINGDON     CLEAR     36  34  93 CALM      30.36R
LEXINGTON      CLEAR     36  34  93 CALM      30.35S
SELMER         CLEAR     37  34  87 N5        30.34S WCI  34
SAVANNAH       CLEAR     37  36  93 N5        30.34S WCI  34
$$

TNZ008-025-027-028-033-062-065-066-200700-
NORTH MIDDLE TENNESSEE

CITY           SKY/WX    TMP DP  RH WIND       PRES   REMARKS
NASHVILLE      FAIR      41  32  70 N6        30.35S
PORTLAND       CLEAR     36  34  93 CALM      30.34F
CLARKSVILLE    FAIR      35  31  85 W3        30.36S
SMYRNA         FAIR      38  32  79 N5        30.36S WCI  34
COOKEVILLE     CLEAR     32  32 100 CALM      30.31F
LIVINGSTON     CLEAR     37  30  75 NE6       30.31S WCI  33
GALLATIN       CLEAR     36  32  87 N3        30.38S
CROSSVILLE     FAIR      36  27  69 NE7       30.31S WCI  30
ROCKWOOD       CLEAR     37  28  70 N7        30.31S WCI  32
$$

TNZ061-075-076-078-094-096-097-200700-
SOUTH MIDDLE TENNESSEE

CITY           SKY/WX    TMP DP  RH WIND       PRES   REMARKS
LEWISBURG      CLEAR     34  32  93 CALM      30.33S
FAYETTEVILLE   CLEAR     39  32  75 NE7       30.30S WCI  34
TULLAHOMA      CLEAR     39  30  70 NE5       30.30S
WINCHESTER     CLEAR     39  30  70 NE7       30.30S WCI  34
MCMINNVILLE    CLEAR     36  30  80 NE6       30.31F WCI  31
COLUMBIA       CLEAR     39  34  81 CALM      30.33S
SHELBYVILLE    CLEAR     37  34  87 N5        30.32F WCI  34
$$

TNZ017-018-042-046-047-200700-
NORTHEAST TENNESSEE

CITY           SKY/WX    TMP DP  RH WIND       PRES   REMARKS
TRI CITIES     FAIR      33  29  85 CALM      30.32S
ELIZABETHTON   FAIR      34  28  80 CALM      30.32S
$$

TNZ012-013-036-069-073-074-200700-
CENTRAL EAST TENNESSEE

CITY           SKY/WX    TMP DP  RH WIND       PRES   REMARKS
KNOXVILLE      FAIR      37  30  75 NE5       30.32F WCI  33
OAK RIDGE      FAIR      40  31  70 NE3       30.35S
DOWNTOWN KNOXV CLEAR     39  34  81 CALM      30.35S HAZE
GATLINBURG     CLEAR     34  30  86 CALM      30.34F
MORRISTOWN     PTCLDY    36  28  75 SE5       30.33S WCI  32
JACKSBORO      CLEAR     34  30  86 CALM      30.37F
$$

TNZ083-085-099-200700-
SOUTHEAST TENNESSEE

CITY           SKY/WX    TMP DP  RH WIND       PRES   REMARKS
CHATTANOOGA    FAIR      44  30  57 NE10      30.30F
DAYTON         CLEAR     39  34  81 N7        30.31F WCI  34
$$

SKY/WX REPORTED AS FAIR MEANS FEW OR NO CLOUDS BELOW
12 THOUSAND FEET.




USA.gov is the U.S. government's official web portal to all federal, state and local government web resources and services.